Погода в Посёлке Садовом

Россия / Калининградская область     54°28′38″N   21°55′18″E
темп.,
°C
ветер,
м/с
пор.,
м/с
влажн.,
%
обл.,
%
осадки,
мм/ч
давл.,
гПа
погр.,
м
5 августа, чт
чт523:00+13зюз018928 0.1 101410
02:00+12з11935 0.1 101410
05:00+11зсз11944 0.0 101410
08:00+15всв22865 0.0 1014268
11:00+20всв33629 0.0 10131166
14:00+22всв445155 0.1 10121840
17:00+20в5664100 0.1 1011631
20:00+17всв3879100 0.1 1011234
6 августа, пт
пт623:00+15всв51275100 0.0 1010423
02:00+13св51287100 0.0 1009479
05:00+12св51287100 0.0 1008524
08:00+13св61180100 0.0 1007622
11:00+15св6972100 0.0 1006961
14:00+15ссв4875100 0.3 1005816
17:00+13с51292100 0.6 1005622
20:00+13сз51197100 1.8 1004609
7 августа, сб
сб723:00+13зсз61097100 0.9 1004583
02:00+13з5998100 1.6 1004531
05:00+13з61197100 0.5 1004551
08:00+14з61194100 0.8 1005691
11:00+18з6107823 0.1 10061166
14:00+20зсз5860100 0.2 10071329
17:00+22зсз475013 0.0 10081785
20:00+16с11785 0.0 100911
8 августа, вс
вс823:00+14вюв22866 0.0 101019
02:00+13ююв227890 0.0 101016
05:00+14ююв339312 0.0 101044
08:00+19ююв4870100 0.0 1009258
11:00+24ююв5859100 0.0 1009645
14:00+21ююв4771100 0.0 1009308
17:00+24зюз476056 0.0 10101400
20:00+19зсз4875100 0.0 1013422
9 августа, пн
пн923:00+15з239499 0.0 101443
02:00+16ююз1189100 0.0 101517
05:00+16ю2391100 0.4 101563
08:00+18юз378597 1.6 1015202
11:00+21зюз5763100 1.5 10161089
14:00+22з476151 3.6 10161729
17:00+20зсз1367100 0.5 1017140
20:00+17ссз238573 1.0 101876